Location: Baumgartsau
(48.4586°N, 14.0864°E)
Time: 15:14:48
(UTC+00:00)

BREEZE M DEB (TANK) - Pass Details

Date: 14 May 2021
Orbit: 296 x 11842 km, 49.5° (Epoch: 19 June)

Event Time Altitude Azimuth Distance (km) Brightness Sun altitude
Rises 00:29:26 0° 300° (WNW) 8,460 8.4 -20.0°
Reaches altitude 10° 00:37:04 10° 286° (WNW) 8,983 8.3 -19.5°
Maximum altitude 00:59:37 19° 254° (WSW) 11,683 8.6 -17.8°
Enters shadow 01:33:37 12° 229° (SW) 15,270 8.9 -14.7°
